FW2321 Weather Reports


Display with metric or nautical units.
time (UTC)temp
F
wind
direction
speed
MPH
gust
MPH
rain 1hr
in
rain 24hr
in
rain mn
in
humidity
%
barometer
mb
20210128021551 0 0 0.0 0.0 0.00 0.00 0.00 87 1031.9
20210128021038 1 0 0.0 0.0 0.00 0.00 0.00 87 1031.9
20210128020558 1 0 0.0 0.0 0.00 0.00 0.00 87 1031.8
20210128020120 1 0 0.0 0.0 0.00 0.00 0.00 86 1031.7
20210128015552 1 0 0.0 1.0 0.00 0.00 0.00 86 1031.7
20210128015058 2 0 0.0 1.0 0.00 0.00 0.00 86 1031.5
20210128014601 3 0 0.0 0.0 0.00 0.00 0.00 87 1031.5
20210128014056 3 0 0.0 0.0 0.00 0.00 0.00 86 1031.6
20210128013537 3 0 0.0 0.0 0.00 0.00 0.00 86 1031.4
20210128013115 4 0 0.0 1.0 0.00 0.00 0.00 86 1031.3
20210128012538 4 0 0.0 1.0 0.00 0.00 0.00 86 1031.2
20210128012041 4 0 0.0 0.0 0.00 0.00 0.00 85 1031.1
20210128011747 5 0 0.0 0.0 0.00 0.00 0.00 85 1031.1
20210128011141 5 0 0.0 0.0 0.00 0.00 0.00 84 1031.1
20210128010552 6 0 0.0 0.0 0.00 0.00 0.00 84 1031.1
20210128010248 6 0 0.0 0.0 0.00 0.00 0.00 84 1030.9
20210128005537 7 0 0.0 0.0 0.00 0.00 0.00 83 1030.9
20210128005103 7 0 0.0 0.0 0.00 0.00 0.00 83 1030.9
20210128004707 8 0 0.0 0.0 0.00 0.00 0.00 83 1030.6
20210128004114 8 0 0.0 1.0 0.00 0.00 0.00 82 1030.7
20210128003539 8 0 0.0 1.0 0.00 0.00 0.00 81 1030.7
20210128003116 9 0 0.0 1.0 0.00 0.00 0.00 80 1030.5
20210128002540 10 0 0.0 1.0 0.00 0.00 0.00 79 1030.5
20210128002103 10 350 0.0 1.0 0.00 0.00 0.00 79 1030.4
20210128001651 11 350 0.0 1.0 0.00 0.00 0.00 79 1030.5
20210128001040 11 0 0.0 0.0 0.00 0.00 0.00 77 1030.5
20210128000718 12 0 0.0 1.0 0.00 0.00 0.00 77 1030.5
20210128000347 12 0 0.0 1.0 0.00 0.00 0.00 77 1030.6
20210127235550 13 0 0.0 2.0 0.00 0.00 0.00 77 1030.5
20210127235058 13 0 0.0 3.0 0.00 0.00 0.00 77 1030.6
20210127234624 13 350 1.0 3.0 0.00 0.00 0.00 76 1030.4
20210127234047 13 350 1.0 4.0 0.00 0.00 0.00 76 1030.3
20210127233556 14 351 2.0 4.0 0.00 0.00 0.00 76 1030.3
20210127233113 14 344 2.0 4.0 0.00 0.00 0.00 75 1030.1
20210127232544 14 338 2.0 8.0 0.00 0.00 0.00 75 1030.1
20210127232036 14 350 2.0 8.0 0.00 0.00 0.00 75 1029.9
20210127231705 14 327 3.0 6.0 0.00 0.00 0.00 75 1029.9
20210127231047 15 351 3.0 8.0 0.00 0.00 0.00 74 1029.9
20210127230537 15 337 4.0 9.0 0.00 0.00 0.00 74 1029.8
20210127230102 15 5 4.0 12.0 0.00 0.00 0.00 73 1029.5
20210127225613 15 5 6.0 14.0 0.00 0.00 0.00 73 1029.6
20210127225052 16 5 7.0 14.0 0.00 0.00 0.00 73 1029.6
20210127224628 16 346 4.0 12.0 0.00 0.00 0.00 73 1029.4
20210127224037 16 330 8.0 13.0 0.00 0.00 0.00 72 1029.4
20210127223556 16 15 7.0 15.0 0.00 0.00 0.00 72 1029.4
20210127223107 16 10 9.0 15.0 0.00 0.00 0.00 71 1029.2
20210127222538 17 347 5.0 16.0 0.00 0.00 0.00 72 1029.1
20210127222039 17 355 7.0 16.0 0.00 0.00 0.00 72 1029.2
20210127221558 17 350 8.0 14.0 0.00 0.00 0.00 71 1029.0
20210127221107 17 5 8.0 13.0 0.00 0.00 0.00 70 1029.0
20210127220556 18 11 7.0 14.0 0.00 0.00 0.00 71 1029.0
20210127220233 18 13 7.0 14.0 0.00 0.00 0.00 70 1028.9
20210127215537 18 325 7.0 13.0 0.00 0.00 0.00 70 1028.8
20210127215049 18 325 6.0 13.0 0.00 0.00 0.00 70 1028.7
20210127214633 18 19 7.0 13.0 0.00 0.00 0.00 70 1028.8
20210127214035 19 355 7.0 13.0 0.00 0.00 0.00 70 1028.7
20210127213541 19 340 7.0 12.0 0.00 0.00 0.00 70 1028.7
20210127213104 19 329 7.0 11.0 0.00 0.00 0.00 70 1028.5
20210127212540 19 351 4.0 13.0 0.00 0.00 0.00 70 1028.5
20210127212040 19 344 6.0 13.0 0.00 0.00 0.00 70 1028.3
20210127211613 19 5 5.0 12.0 0.00 0.00 0.00 70 1028.4
20210127211039 19 360 6.0 13.0 0.00 0.00 0.00 70 1028.2
20210127210606 19 329 7.0 13.0 0.00 0.00 0.00 70 1028.1
20210127210129 20 309 7.0 13.0 0.00 0.00 0.00 69 1028.2
20210127205555 20 11 7.0 13.0 0.00 0.00 0.00 69 1028.2
20210127205037 20 360 5.0 11.0 0.00 0.00 0.00 69 1028.0
20210127204629 20 360 5.0 12.0 0.00 0.00 0.00 69 1027.9
20210127204037 20 355 5.0 12.0 0.00 0.00 0.00 69 1028.0
20210127203535 20 324 5.0 12.0 0.00 0.00 0.00 69 1028.0
20210127203057 20 339 5.0 12.0 0.00 0.00 0.00 69 1027.9
20210127202547 21 5 5.0 12.0 0.00 0.00 0.00 68 1028.0
20210127202042 21 290 6.0 11.0 0.00 0.00 0.00 69 1028.0
20210127201549 21 352 6.0 11.0 0.00 0.00 0.00 69 1027.9
20210127201037 21 339 5.0 12.0 0.00 0.00 0.00 69 1027.8
20210127200549 20 348 5.0 12.0 0.00 0.00 0.00 68 1027.7
20210127200309 21 20 5.0 12.0 0.00 0.00 0.00 68 1027.6
20210127195555 21 5 5.0 12.0 0.00 0.00 0.00 68 1027.7
20210127195045 21 350 5.0 12.0 0.00 0.00 0.00 68 1027.6
20210127194557 21 314 5.0 12.0 0.00 0.00 0.00 68 1027.6
20210127194042 21 5 4.0 9.0 0.00 0.00 0.00 68 1027.3
20210127193545 21 350 4.0 10.0 0.00 0.00 0.00 69 1027.4
20210127193159 21 355 4.0 10.0 0.00 0.00 0.00 69 1027.3
20210127192556 21 341 6.0 10.0 0.00 0.00 0.00 68 1027.3
20210127192052 21 331 5.0 10.0 0.00 0.00 0.00 68 1027.3
20210127191744 21 341 5.0 10.0 0.00 0.00 0.00 69 1027.2
20210127191037 21 325 4.0 10.0 0.00 0.00 0.00 69 1027.3
20210127190541 21 349 6.0 10.0 0.00 0.00 0.00 70 1027.4
20210127190133 21 340 5.0 10.0 0.00 0.00 0.00 70 1027.3
20210127185601 20 324 7.0 10.0 0.00 0.00 0.00 70 1027.3
20210127185043 20 306 6.0 10.0 0.00 0.00 0.00 70 1027.4
20210127184626 21 344 5.0 10.0 0.00 0.00 0.00 70 1027.4
20210127184114 20 342 6.0 10.0 0.00 0.00 0.00 70 1027.3
20210127183621 21 324 5.0 11.0 0.00 0.00 0.00 71 1027.4
20210127183138 21 313 6.0 11.0 0.00 0.00 0.00 71 1027.4
20210127182558 21 331 4.0 11.0 0.00 0.00 0.00 72 1027.3
20210127182109 20 327 6.0 11.0 0.00 0.00 0.00 71 1027.4
20210127181636 21 340 4.0 11.0 0.00 0.00 0.00 72 1027.3
20210127181048 20 333 4.0 11.0 0.00 0.00 0.00 73 1027.4
20210127180549 20 309 5.0 10.0 0.00 0.00 0.00 72 1027.3
20210127180158 21 346 5.0 10.0 0.00 0.00 0.00 72 1027.3
20210127175602 21 333 6.0 11.0 0.00 0.00 0.00 73 1027.5
20210127175042 21 19 5.0 11.0 0.00 0.00 0.00 73 1027.4
20210127174718 21 355 4.0 10.0 0.00 0.00 0.00 73 1027.6
20210127174038 21 337 4.0 9.0 0.00 0.00 0.00 74 1027.7
20210127173551 20 331 5.0 10.0 0.00 0.00 0.00 74 1027.7
20210127173211 20 311 5.0 10.0 0.00 0.00 0.00 75 1027.7
20210127172554 20 330 4.0 10.0 0.00 0.00 0.00 75 1027.7
20210127172035 20 333 5.0 9.0 0.00 0.00 0.00 74 1027.7
20210127171631 20 323 5.0 10.0 0.00 0.00 0.00 74 1027.8
20210127171050 20 352 5.0 10.0 0.00 0.00 0.00 74 1027.9
20210127170552 20 315 5.0 9.0 0.00 0.00 0.00 75 1027.8
20210127170111 20 5 3.0 10.0 0.00 0.00 0.00 76 1027.9
20210127165552 20 349 4.0 10.0 0.00 0.00 0.00 77 1028.1
20210127165045 19 13 5.0 9.0 0.00 0.00 0.00 76 1028.1
20210127164656 19 345 4.0 8.0 0.00 0.00 0.00 77 1028.1
20210127164053 19 5 3.0 9.0 0.00 0.00 0.00 78 1028.1
20210127163613 18 9 5.0 9.0 0.00 0.00 0.00 78 1028.1
20210127163138 18 32 4.0 9.0 0.00 0.00 0.00 79 1028.1
20210127162541 17 317 4.0 8.0 0.00 0.00 0.00 80 1028.1
20210127162045 17 19 4.0 7.0 0.00 0.00 0.00 80 1028.0
20210127161616 16 355 4.0 7.0 0.00 0.00 0.00 81 1028.1
20210127161044 16 14 2.0 7.0 0.00 0.00 0.00 81 1028.0
20210127160547 15 355 4.0 9.0 0.00 0.00 0.00 81 1028.0
20210127160146 15 347 4.0 9.0 0.00 0.00 0.00 82 1028.0
20210127155542 14 26 3.0 6.0 0.00 0.00 0.00 82 1028.1
20210127155050 14 25 3.0 5.0 0.00 0.00 0.00 83 1028.2
20210127154619 13 19 3.0 5.0 0.00 0.00 0.00 83 1028.1
20210127154046 13 20 2.0 5.0 0.00 0.00 0.00 84 1028.2
20210127153538 13 19 3.0 8.0 0.00 0.00 0.00 84 1028.0
20210127153123 12 5 5.0 9.0 0.00 0.00 0.00 84 1027.9
20210127152629 12 26 5.0 9.0 0.00 0.00 0.00 85 1028.0
20210127152033 11 30 4.0 7.0 0.00 0.00 0.00 85 1027.9
20210127151625 11 22 3.0 7.0 0.00 0.00 0.00 85 1027.8
20210127151055 11 13 4.0 9.0 0.00 0.00 0.00 85 1027.6
20210127150557 10 39 5.0 9.0 0.00 0.00 0.00 85 1027.6
20210127150110 10 25 6.0 12.0 0.00 0.00 0.00 86 1027.5
20210127145536 10 29 7.0 12.0 0.00 0.00 0.00 86 1027.4
20210127145112 9 17 3.0 6.0 0.00 0.00 0.00 87 1027.4
20210127144556 9 50 2.0 5.0 0.00 0.00 0.00 87 1027.4
20210127144044 9 5 3.0 7.0 0.00 0.00 0.00 88 1027.3
20210127143535 9 13 3.0 7.0 0.00 0.00 0.00 88 1027.4
20210127143129 8 9 2.0 6.0 0.00 0.00 0.00 89 1027.4
20210127142537 8 13 3.0 6.0 0.00 0.00 0.00 89 1027.5
20210127142039 7 355 2.0 5.0 0.00 0.00 0.00 90 1027.4
20210127141644 6 355 1.0 4.0 0.00 0.00 0.00 90 1027.6
20210127141051 6 5 2.0 3.0 0.00 0.00 0.00 90 1027.4
20210127140552 5 5 1.0 4.0 0.00 0.00 0.00 90 1027.3
20210127140128 5 5 2.0 5.0 0.00 0.00 0.00 89 1027.3
20210127135549 5 11 2.0 5.0 0.00 0.00 0.00 89 1027.2
20210127135036 4 336 0.0 1.0 0.00 0.00 0.00 88 1027.6
20210127134616 4 0 0.0 2.0 0.00 0.00 0.00 88 1027.4
20210127134044 5 0 0.0 2.0 0.00 0.00 0.00 88 1027.7
20210127133536 5 335 0.0 1.0 0.00 0.00 0.00 89 1027.2
20210127133120 5 335 0.0 2.0 0.00 0.00 0.00 89 1027.2
20210127132537 5 0 0.0 3.0 0.00 0.00 0.00 89 1027.2
20210127132102 5 335 1.0 3.0 0.00 0.00 0.00 88 1027.1
20210127131547 5 335 2.0 3.0 0.00 0.00 0.00 89 1027.0
20210127131103 5 337 1.0 3.0 0.00 0.00 0.00 89 1027.1
20210127130541 5 337 1.0 3.0 0.00 0.00 0.00 89 1027.1
20210127130126 5 338 2.0 3.0 0.00 0.00 0.00 90 1027.0
20210127125538 5 338 1.0 3.0 0.00 0.00 0.00 89 1026.9
20210127125053 4 338 2.0 3.0 0.00 0.00 0.00 89 1026.8
20210127124636 4 360 0.0 2.0 0.00 0.00 0.00 87 1026.8
20210127124049 4 0 0.0 2.0 0.00 0.00 0.00 88 1026.9
20210127123536 4 360 1.0 2.0 0.00 0.00 0.00 88 1026.6
20210127123117 4 360 1.0 2.0 0.00 0.00 0.00 87 1026.4
20210127122553 4 0 0.0 2.0 0.00 0.00 0.00 86 1026.4
20210127122038 5 360 1.0 2.0 0.00 0.00 0.00 86 1026.3
20210127121618 6 360 0.0 2.0 0.00 0.00 0.00 86 1025.9
20210127121053 7 360 0.0 2.0 0.00 0.00 0.00 86 1025.7
20210127120543 7 0 0.0 2.0 0.00 0.00 0.00 86 1025.5
20210127120058 8 360 1.0 6.0 0.00 0.00 0.00 85 1025.4
20210127115539 9 360 1.0 6.0 0.00 0.00 0.00 86 1025.3
20210127115053 9 9 3.0 7.0 0.00 0.00 0.00 87 1025.1
20210127114625 9 355 3.0 7.0 0.00 0.00 0.00 87 1024.9
20210127114131 9 355 3.0 10.0 0.00 0.00 0.00 88 1024.6
20210127113600 9 9 4.0 10.0 0.00 0.00 0.00 88 1024.3
20210127113110 9 22 4.0 9.0 0.00 0.00 0.00 88 1024.0
20210127112546 9 22 4.0 7.0 0.00 0.00 0.00 88 1024.0
20210127112047 9 22 3.0 6.0 0.00 0.00 0.00 89 1024.0
20210127111609 8 33 2.0 5.0 0.00 0.00 0.00 89 1024.2
20210127111044 8 30 3.0 7.0 0.00 0.00 0.00 89 1024.3
20210127110537 8 22 3.0 7.0 0.00 0.00 0.00 89 1024.3
20210127110127 7 30 2.0 4.0 0.00 0.00 0.00 89 1024.4
20210127105536 8 22 2.0 5.0 0.00 0.00 0.00 89 1024.7
20210127105124 8 0 2.0 5.0 0.00 0.00 0.00 89 1024.9
20210127104603 8 30 2.0 5.0 0.00 0.00 0.00 89 1024.9
20210127104104 8 36 1.0 5.0 0.00 0.00 0.00 89 1025.2
20210127103538 8 36 1.0 3.0 0.00 0.00 0.00 90 1025.1
20210127103052 8 36 1.0 3.0 0.00 0.00 0.00 90 1025.1
20210127102542 8 34 1.0 3.0 0.00 0.00 0.00 90 1025.1
20210127102105 8 0 0.0 2.0 0.00 0.00 0.00 91 1025.1
20210127101649 7 16 0.0 1.0 0.00 0.00 0.00 91 1025.3
20210127101040 7 16 0.0 2.0 0.00 0.00 0.00 90 1025.3
20210127100552 7 0 0.0 3.0 0.00 0.00 0.00 91 1025.4
20210127100222 7 16 0.0 3.0 0.00 0.00 0.00 90 1025.5
20210127095540 7 0 0.0 0.0 0.00 0.00 0.00 90 1025.5
20210127095040 7 0 0.0 0.0 0.00 0.00 0.00 89 1025.7
20210127094555 7 0 0.0 0.0 0.00 0.00 0.00 89 1025.8
20210127094053 7 0 0.0 0.0 0.00 0.00 0.00 89 1025.8
20210127093618 7 0 0.0 0.0 0.00 0.00 0.00 89 1025.8
20210127093058 7 0 0.0 0.0 0.00 0.00 0.00 90 1026.0
20210127092548 7 0 0.0 0.0 0.00 0.00 0.00 90 1025.9
20210127092037 7 0 0.0 0.0 0.00 0.00 0.00 90 1025.8
20210127091624 7 0 0.0 0.0 0.00 0.00 0.00 91 1026.0
20210127091056 7 0 0.0 0.0 0.00 0.00 0.00 91 1026.1
20210127090549 7 0 0.0 1.0 0.00 0.00 0.00 91 1026.1
20210127090105 7 0 0.0 2.0 0.00 0.00 0.00 91 1026.0
20210127085541 7 16 0.0 2.0 0.00 0.00 0.00 91 1026.1
20210127085038 7 16 0.0 2.0 0.00 0.00 0.00 92 1025.9
20210127084623 6 16 0.0 2.0 0.00 0.00 0.00 92 1026.0
20210127084040 6 16 1.0 2.0 0.00 0.00 0.00 92 1025.9
20210127083643 5 16 1.0 2.0 0.00 0.00 0.00 91 1025.9
20210127083159 5 22 1.0 2.0 0.00 0.00 0.00 90 1026.1
20210127082553 4 22 0.0 2.0 0.00 0.00 0.00 91 1026.0
20210127082042 4 22 0.0 2.0 0.00 0.00 0.00 89 1025.9
20210127081612 5 0 0.0 1.0 0.00 0.00 0.00 90 1026.0
20210127081038 4 22 0.0 1.0 0.00 0.00 0.00 92 1025.8
20210127080539 4 22 0.0 1.0 0.00 0.00 0.00 91 1025.7
20210127080141 3 0 0.0 1.0 0.00 0.00 0.00 90 1025.5
20210127075535 3 22 0.0 1.0 0.00 0.00 0.00 90 1025.3
20210127075052 3 0 0.0 2.0 0.00 0.00 0.00 90 1025.3
20210127074619 3 0 0.0 2.0 0.00 0.00 0.00 90 1025.1
20210127074109 3 22 0.0 1.0 0.00 0.00 0.00 89 1025.0
20210127073551 3 0 0.0 0.0 0.00 0.00 0.00 90 1024.9
20210127073214 3 0 0.0 0.0 0.00 0.00 0.00 90 1024.9
20210127072610 2 0 0.0 0.0 0.00 0.00 0.00 89 1024.9
20210127072045 2 0 0.0 0.0 0.00 0.00 0.00 89 1024.8
20210127071655 2 0 0.0 0.0 0.00 0.00 0.00 89 1024.8
20210127071044 2 0 0.0 0.0 0.00 0.00 0.00 88 1024.7
20210127070536 2 0 0.0 1.0 0.00 0.00 0.00 89 1024.6
20210127070055 2 0 0.0 2.0 0.00 0.00 0.00 89 1024.5
20210127065604 3 22 0.0 2.0 0.00 0.00 0.00 89 1024.5
20210127065053 3 22 0.0 1.0 0.00 0.00 0.00 89 1024.2
20210127064609 3 0 0.0 1.0 0.00 0.00 0.00 89 1024.2
20210127064044 3 0 0.0 2.0 0.00 0.00 0.00 89 1024.1
20210127063539 3 0 0.0 2.0 0.00 0.00 0.00 88 1024.1
20210127063113 4 0 0.0 2.0 0.00 0.00 0.00 89 1024.0
20210127062540 4 22 0.0 1.0 0.00 0.00 0.00 90 1023.9
20210127062037 4 0 0.0 0.0 0.00 0.00 0.00 89 1023.8
20210127061552 4 0 0.0 0.0 0.00 0.00 0.00 89 1023.8
20210127061039 4 0 0.0 0.0 0.00 0.00 0.00 89 1023.7
20210127060544 4 0 0.0 0.0 0.00 0.00 0.00 89 1023.8
20210127060127 4 0 0.0 0.0 0.00 0.00 0.00 88 1023.7
20210127055535 5 0 0.0 0.0 0.00 0.00 0.00 89 1023.6
20210127055040 5 0 0.0 0.0 0.00 0.00 0.00 89 1023.6
20210127054620 5 0 0.0 0.0 0.00 0.00 0.00 88 1023.5
20210127054038 5 0 0.0 0.0 0.00 0.00 0.00 88 1023.4
20210127053538 6 0 0.0 1.0 0.00 0.00 0.00 89 1023.4
20210127053054 6 0 0.0 1.0 0.00 0.00 0.00 89 1023.4
20210127052607 6 0 0.0 2.0 0.00 0.00 0.00 88 1023.3
20210127052038 6 22 0.0 2.0 0.00 0.00 0.00 88 1023.3
20210127051602 7 22 1.0 2.0 0.00 0.00 0.00 87 1023.1
20210127051035 8 0 0.0 1.0 0.00 0.00 0.00 88 1023.1
20210127050538 9 0 0.0 2.0 0.00 0.00 0.00 89 1022.9
20210127050145 9 0 0.0 2.0 0.00 0.00 0.00 90 1023.0
20210127045547 10 22 0.0 2.0 0.00 0.00 0.00 90 1022.9
20210127045035 10 0 0.0 2.0 0.00 0.00 0.00 90 1022.7
20210127044612 9 0 0.0 2.0 0.00 0.00 0.00 91 1022.5
20210127044039 9 22 0.0 2.0 0.00 0.00 0.00 88 1022.3
20210127043619 9 0 0.0 2.0 0.00 0.00 0.00 88 1022.3
20210127043129 10 0 0.0 0.0 0.00 0.00 0.00 87 1022.3
20210127042535 11 0 0.0 0.0 0.00 0.00 0.00 88 1022.3
20210127042038 11 0 0.0 0.0 0.00 0.00 0.00 88 1022.1
20210127041701 12 0 0.0 1.0 0.00 0.00 0.00 88 1022.2
20210127041048 13 0 0.0 1.0 0.00 0.00 0.00 88 1022.0
20210127040542 13 0 0.0 1.0 0.00 0.00 0.00 88 1022.0
20210127040143 14 0 0.0 2.0 0.00 0.00 0.00 88 1021.9
20210127035541 14 22 0.0 3.0 0.00 0.00 0.00 89 1021.8
20210127035042 14 22 1.0 3.0 0.00 0.00 0.00 89 1021.8
20210127034627 14 22 1.0 2.0 0.00 0.00 0.00 89 1021.8
20210127034045 14 22 1.0 2.0 0.00 0.00 0.00 88 1021.7
20210127033538 14 0 0.0 1.0 0.00 0.00 0.00 87 1021.8
20210127033124 15 0 0.0 2.0 0.00 0.00 0.00 87 1021.7
20210127032610 15 0 0.0 2.0 0.00 0.00 0.00 86 1021.7
20210127032054 15 0 0.0 2.0 0.00 0.00 0.00 86 1021.6
20210127031557 16 0 0.0 2.0 0.00 0.00 0.00 85 1021.5
20210127031042 16 22 0.0 3.0 0.00 0.00 0.00 85 1021.4
20210127030542 17 22 1.0 4.0 0.00 0.00 0.00 85 1021.5
20210127030257 17 22 2.0 4.0 0.00 0.00 0.00 86 1021.4
20210127025537 17 5 1.0 3.0 0.00 0.00 0.00 85 1021.5
20210127025045 17 344 1.0 3.0 0.00 0.00 0.00 85 1021.7
20210127024718 18 344 1.0 3.0 0.00 0.00 0.00 85 1021.7
20210127024036 18 344 1.0 3.0 0.00 0.00 0.00 84 1021.8
20210127023540 18 344 1.0 4.0 0.00 0.00 0.00 84 1021.7
20210127023124 18 342 1.0 4.0 0.00 0.00 0.00 84 1021.6
20210127022543 19 337 2.0 5.0 0.00 0.00 0.00 84 1021.6
20210127022042 19 336 2.0 5.0 0.00 0.00 0.00 83 1021.7